Change the Weather History Date:

Sunday, October 28, 2012

  Actual Average (KPLN) Record (KPLN)
Temperature  
Mean Temperature 41 °F -  
Max Temperature 46 °F 51 °F 71 °F (1955)
Min Temperature 36 °F 33 °F 15 °F (1965)
Degree Days  
Heating Degree Days 24    
Moisture  
Dew Point 28 °F    
Average Humidity 61    
Maximum Humidity 83    
Minimum Humidity 45    
Precipitation  
Precipitation 0.00 in - - ()
Sea Level Pressure  
Sea Level Pressure 30.31 in    
Wind  
Wind Speed 8 mph (North)    
Max Wind Speed 14 mph    
Max Gust Speed 21 mph    
Visibility 10 miles    
Events      
Averages and records for this station are not official NWS values.
T = Trace of Precipitation, MM = Missing Value Source: NWS Daily Summary

Daily Weather History Graph

Daily Weather History Graph

Search for Another Location

Airport or City:

Trip Planner

Search our weather history database for the weather conditions in past years. The results will help you decide how hot, cold, wet, or windy it might be!

Date:

Astronomy

Oct. 28, 2012 Rise Set
Actual Time 8:12 AM EDT 6:29 PM EDT
Civil Twilight 7:42 AM EDT 7:00 PM EDT
Nautical Twilight 7:07 AM EDT 7:35 PM EDT
Astronomical Twilight 6:32 AM EDT 8:09 PM EDT
Moon 5:47 PM EDT (10/28) 7:03 AM EDT (10/28)
Length of Visible Light 11h 18m
Length of Day
10h 17m
Waxing Gibbous, 99% of the Moon is Illuminated
Oct 28
Waxing Gibbous
Oct 29
Full
Nov 6
Last Quarter
Nov 13
New
Nov 20
First Quarter

Hourly Weather History & Observations

Time (EDT) Temp. Windchill Dew Point Humidity Pressure Visibility Wind Dir Wind Speed Gust Speed Precip Events Conditions
12:15 AM 37.4 °F 31.4 °F 32.0 °F 81% 30.30 in 10.0 mi NNW 8.1 mph - N/A   Scattered Clouds
12:55 AM 36.7 °F 32.0 °F 31.8 °F 83% 30.31 in 10.0 mi WNW 5.8 mph - N/A   Scattered Clouds
1:15 AM 37.4 °F 32.8 °F 32.0 °F 81% 30.30 in 10.0 mi NW 5.8 mph - N/A   Mostly Cloudy
1:35 AM 38.5 °F 33.4 °F 31.1 °F 75% 30.31 in 10.0 mi NNW 6.9 mph - N/A   Scattered Clouds
1:55 AM 38.3 °F 31.4 °F 29.8 °F 72% 30.31 in 10.0 mi NW 10.4 mph 16.1 mph N/A   Mostly Cloudy
2:15 AM 38.3 °F 31.9 °F 31.3 °F 76% 30.30 in 10.0 mi NNW 9.2 mph - N/A   Overcast
2:35 AM 38.5 °F 32.1 °F 31.1 °F 75% 30.30 in 10.0 mi NNW 9.2 mph - N/A   Overcast
2:55 AM 38.5 °F 31.6 °F 31.1 °F 75% 30.31 in 10.0 mi NNW 10.4 mph 17.3 mph N/A   Mostly Cloudy
3:15 AM 38.5 °F 32.7 °F 31.1 °F 75% 30.31 in 10.0 mi NNW 8.1 mph - N/A   Scattered Clouds
3:35 AM 38.7 °F 31.4 °F 30.2 °F 72% 30.31 in 10.0 mi North 11.5 mph 17.3 mph N/A   Clear
3:55 AM 39.2 °F 32.5 °F 28.4 °F 65% 30.32 in 10.0 mi North 10.4 mph - N/A   Clear
4:15 AM 38.8 °F 33.2 °F 28.4 °F 66% 30.31 in 10.0 mi North 8.1 mph - N/A   Clear
4:35 AM 38.7 °F 30.9 °F 27.3 °F 64% 30.32 in 10.0 mi North 12.7 mph 17.3 mph N/A   Clear
4:55 AM 38.3 °F 33.2 °F 27.9 °F 66% 30.32 in 10.0 mi North 6.9 mph - N/A   Clear
5:15 AM 38.1 °F 32.3 °F 27.9 °F 67% 30.32 in 10.0 mi North 8.1 mph - N/A   Clear
5:35 AM 38.5 °F 35.0 °F 26.4 °F 62% 30.33 in 10.0 mi North 4.6 mph - N/A   Clear
5:55 AM 37.4 °F 34.9 °F 27.5 °F 67% 30.33 in 10.0 mi North 3.5 mph - N/A   Clear
6:15 AM 37.4 °F 32.8 °F 28.4 °F 70% 30.33 in 10.0 mi North 5.8 mph - N/A   Clear
6:35 AM 37.2 °F 32.6 °F 28.2 °F 70% 30.34 in 10.0 mi North 5.8 mph - N/A   Clear
6:55 AM 38.3 °F 34.8 °F 27.7 °F 66% 30.33 in 10.0 mi NNW 4.6 mph - N/A   Clear
7:15 AM 37.8 °F 32.5 °F 27.5 °F 67% 30.33 in 10.0 mi North 6.9 mph - N/A   Clear
7:35 AM 37.4 °F 32.8 °F 27.3 °F 67% 30.33 in 10.0 mi North 5.8 mph - N/A   Clear
7:55 AM 37.4 °F 32.1 °F 26.6 °F 65% 30.33 in 10.0 mi North 6.9 mph - N/A   Clear
8:15 AM 37.0 °F 31.0 °F 26.2 °F 65% 30.33 in 10.0 mi North 8.1 mph - N/A   Clear
8:35 AM 37.9 °F 32.7 °F 26.4 °F 63% 30.33 in 10.0 mi North 6.9 mph - N/A   Clear
8:55 AM 37.6 °F 33.1 °F 26.4 °F 64% 30.33 in 10.0 mi North 5.8 mph - N/A   Clear
9:15 AM 39.2 °F 35.0 °F 27.1 °F 62% 30.34 in 10.0 mi North 5.8 mph - N/A   Clear
9:35 AM 41.0 °F 38.0 °F 27.3 °F 58% 30.34 in 10.0 mi North 4.6 mph - N/A   Clear
9:55 AM 41.4 °F 36.8 °F 25.7 °F 54% 30.34 in 10.0 mi North 6.9 mph - N/A   Clear
10:15 AM 42.3 °F 35.9 °F 25.7 °F 52% 30.35 in 10.0 mi North 11.5 mph - N/A   Clear
10:35 AM 42.8 °F 38.6 °F 26.1 °F 52% 30.35 in 10.0 mi NNE 6.9 mph - N/A   Clear
10:55 AM 42.8 °F 37.5 °F 26.2 °F 52% 30.34 in 10.0 mi NE 9.2 mph - N/A   Clear
11:15 AM 44.1 °F 39.0 °F 25.5 °F 48% 30.34 in 10.0 mi NE 9.2 mph - N/A   Clear
11:35 AM 43.7 °F 38.1 °F 26.2 °F 50% 30.34 in 10.0 mi NE 10.4 mph - N/A   Clear
11:55 AM 42.8 °F 37.5 °F 25.5 °F 51% 30.33 in 10.0 mi NNE 9.2 mph - N/A   Clear
12:15 PM 43.3 °F 38.6 °F 27.3 °F 53% 30.33 in 10.0 mi NE 8.1 mph - N/A   Clear
12:35 PM 44.4 °F 39.5 °F 26.8 °F 50% 30.33 in 10.0 mi North 9.2 mph - N/A   Clear
12:55 PM 44.2 °F 39.7 °F 25.3 °F 47% 30.32 in 10.0 mi North 8.1 mph - N/A   Clear
1:15 PM 44.8 °F 40.4 °F 26.6 °F 49% 30.32 in 10.0 mi North 8.1 mph - N/A   Clear
1:35 PM 44.6 °F 40.7 °F 26.4 °F 49% 30.31 in 10.0 mi NNE 6.9 mph - N/A   Clear
1:55 PM 44.8 °F 39.9 °F 25.5 °F 47% 30.31 in 10.0 mi NE 9.2 mph - N/A   Clear
2:15 PM 45.1 °F 40.3 °F 26.2 °F 48% 30.31 in 10.0 mi NNE 9.2 mph - N/A   Clear
2:35 PM 45.9 °F 40.4 °F 25.5 °F 45% 30.31 in 10.0 mi North 11.5 mph - N/A   Scattered Clouds
2:55 PM 46.6 °F - 26.8 °F 46% 30.31 in 10.0 mi NNE 11.5 mph 16.1 mph N/A   Scattered Clouds
3:15 PM 46.2 °F 40.8 °F 26.1 °F 45% 30.30 in 10.0 mi North 11.5 mph 17.3 mph N/A   Scattered Clouds
3:35 PM 46.4 °F 41.5 °F 26.2 °F 45% 30.29 in 10.0 mi North 10.4 mph - N/A   Clear
3:55 PM 46.0 °F 41.4 °F 26.6 °F 47% 30.28 in 10.0 mi North 9.2 mph - N/A   Clear
4:15 PM 45.9 °F 41.2 °F 25.9 °F 46% 30.29 in 10.0 mi North 9.2 mph - N/A   Clear
4:35 PM 46.0 °F 41.4 °F 25.9 °F 45% 30.28 in 10.0 mi NNW 9.2 mph - N/A   Clear
4:55 PM 44.8 °F 39.9 °F 25.7 °F 47% 30.28 in 10.0 mi NNW 9.2 mph - N/A   Clear
5:15 PM 43.7 °F 38.6 °F 26.8 °F 51% 30.28 in 10.0 mi NNW 9.2 mph - N/A   Clear
5:35 PM 43.5 °F 37.9 °F 26.8 °F 52% 30.28 in 10.0 mi NNW 10.4 mph - N/A   Clear
5:55 PM 43.0 °F 37.2 °F 27.1 °F 54% 30.28 in 10.0 mi NNW 10.4 mph - N/A   Clear
6:15 PM 42.6 °F 37.8 °F 28.2 °F 57% 30.28 in 10.0 mi NNW 8.1 mph 16.1 mph N/A   Clear
6:35 PM 42.1 °F 35.7 °F 27.7 °F 57% 30.29 in 10.0 mi North 11.5 mph 17.3 mph N/A   Clear
6:55 PM 41.9 °F 35.4 °F 28.9 °F 60% 30.29 in 10.0 mi North 11.5 mph 16.1 mph N/A   Clear
7:15 PM 41.9 °F 35.9 °F 28.4 °F 59% 30.29 in 10.0 mi North 10.4 mph 17.3 mph N/A   Clear
7:35 PM 41.9 °F 35.9 °F 29.3 °F 61% 30.29 in 10.0 mi North 10.4 mph 17.3 mph N/A   Clear
7:55 PM 41.5 °F 34.6 °F 29.8 °F 63% 30.29 in 10.0 mi North 12.7 mph - N/A   Clear
8:15 PM 41.5 °F 35.4 °F 30.2 °F 64% 30.30 in 10.0 mi North 10.4 mph 19.6 mph N/A   Clear
8:35 PM 41.2 °F 34.5 °F 30.6 °F 66% 30.29 in 10.0 mi NNW 11.5 mph 20.7 mph N/A   Clear
9:15 PM 40.3 °F 34.4 °F 31.1 °F 70% 30.29 in 10.0 mi NNW 9.2 mph - N/A   Clear
9:35 PM 40.1 °F 35.3 °F 31.5 °F 71% 30.29 in 10.0 mi NNW 6.9 mph 16.1 mph N/A   Clear
9:55 PM 39.2 °F 33.6 °F 31.6 °F 74% 30.30 in 10.0 mi NNW 8.1 mph - N/A   Clear
10:14 PM 39.9 °F 32.1 °F 31.1 °F 71% 30.29 in 10.0 mi North 13.8 mph 17.3 mph N/A   Clear
10:35 PM 40.1 °F 33.6 °F 31.6 °F 72% 30.29 in 10.0 mi North 10.4 mph 17.3 mph N/A   Clear
10:55 PM 39.7 °F 32.7 °F 31.1 °F 71% 30.30 in 10.0 mi North 11.5 mph 16.1 mph N/A   Clear
11:15 PM 39.6 °F 33.5 °F 30.9 °F 71% 30.29 in 10.0 mi North 9.2 mph 17.3 mph N/A   Clear
11:35 PM 39.6 °F 33.0 °F 30.2 °F 69% 30.29 in 10.0 mi North 10.4 mph - N/A   Clear
11:55 PM 40.1 °F 33.6 °F 28.4 °F 63% 30.28 in 10.0 mi North 10.4 mph - N/A   Clear